Weather History for Fort Campbell, KY

Change the Weather History Date:

Sunday, January 19, 2014

  Actual Average Record
Temperature  
Mean Temperature 39 °F -  
Max Temperature 46 °F 43 °F 62 °F (1999)
Min Temperature 32 °F 25 °F 12 °F (2003)
Degree Days  
Heating Degree Days 26    
Moisture  
Dew Point 26 °F    
Average Humidity 67    
Maximum Humidity 94    
Minimum Humidity 39    
Precipitation  
Precipitation 0.00 in - - ()
Sea Level Pressure  
Sea Level Pressure 30.03 in    
Wind  
Wind Speed 12 mph (West)    
Max Wind Speed 21 mph    
Max Gust Speed 30 mph    
Visibility 10 miles    
Events      
Averages and records for this station are not official NWS values.
T = Trace of Precipitation, MM = Missing Value Source: NWS Daily Summary

Daily Weather History Graph

Daily Weather History Graph

Search for Another Location

Airport:

Trip Planner

Search our weather history database for the weather conditions in past years. The results will help you decide how hot, cold, wet, or windy it might be!

Date:

Astronomy

Jan. 19, 2014 Rise Set
Actual Time 6:59 AM CST 5:01 PM CST
Civil Twilight 6:32 AM CST 5:29 PM CST
Nautical Twilight 6:00 AM CST 6:01 PM CST
Astronomical Twilight 5:29 AM CST 6:32 PM CST
Moon 8:32 PM CST (1/19) 8:36 AM CST (1/19)
Length of Visible Light 10h 57m
Length of Day
10h 01m
Waning Gibbous, 89% of the Moon is Illuminated
Jan 19
Waning Gibbous
Jan 23
Last Quarter
Jan 30
New
Feb 6
First Quarter
Feb 14
Full

Hourly Weather History & Observations

Time (CST) Temp. Windchill Dew Point Humidity Pressure Visibility Wind Dir Wind Speed Gust Speed Precip Events Conditions
12:58 AM 37.9 °F 29.2 °F 29.1 °F 71% 29.89 in 10.0 mi WNW 15.0 mph 20.7 mph N/A   Mostly Cloudy
1:28 AM 37.4 °F 30.8 °F 32.0 °F 81% 29.90 in 10.0 mi WNW 9.2 mph - N/A   Overcast
1:58 AM 37.9 °F 30.0 °F 30.7 °F 75% 29.94 in 10.0 mi NW 12.7 mph - N/A   Overcast
2:58 AM 36.3 °F 26.4 °F 29.5 °F 76% 29.98 in 10.0 mi NW 17.3 mph 23.0 mph N/A   Overcast
3:17 AM 35.6 °F 27.5 °F 32.0 °F 87% 29.97 in 10.0 mi NW 11.5 mph 28.8 mph N/A   Overcast
3:51 AM 35.6 °F 27.5 °F 32.0 °F 87% 29.98 in 10.0 mi NW 11.5 mph - N/A   Overcast
3:58 AM 35.1 °F 25.9 °F 31.6 °F 87% 30.00 in 10.0 mi NW 13.8 mph 18.4 mph N/A   Overcast
4:58 AM 34.0 °F 27.2 °F 32.5 °F 94% 30.02 in 10.0 mi NW 8.1 mph - N/A   Overcast
5:38 AM 32.0 °F 23.0 °F 30.2 °F 93% 30.03 in 10.0 mi NW 11.5 mph - N/A   Overcast
5:58 AM 33.3 °F 25.1 °F 29.8 °F 87% 30.05 in 10.0 mi NW 10.4 mph - N/A   Overcast
6:54 AM 32.0 °F 24.8 °F 28.4 °F 87% 30.06 in 10.0 mi NW 8.1 mph - N/A   Overcast
6:55 AM 32.0 °F 24.8 °F 28.4 °F 87% 30.06 in 10.0 mi NW 8.1 mph - N/A   Overcast
6:58 AM 32.2 °F 25.0 °F 27.9 °F 84% 30.09 in 10.0 mi NW 8.1 mph - N/A   Overcast
7:34 AM 32.0 °F 24.2 °F 26.6 °F 80% 30.07 in 10.0 mi NW 9.2 mph - N/A   Overcast
7:58 AM 32.0 °F 25.6 °F 26.2 °F 79% 30.10 in 10.0 mi NW 6.9 mph - N/A   Overcast
8:35 AM 32.0 °F 26.4 °F 24.8 °F 75% 30.09 in 10.0 mi WNW 5.8 mph - N/A   Overcast
8:58 AM 32.4 °F 26.9 °F 25.5 °F 76% 30.12 in 10.0 mi NW 5.8 mph - N/A   Overcast
9:40 AM 33.8 °F 25.3 °F 26.6 °F 75% 30.12 in 10.0 mi WNW 11.5 mph - N/A   Overcast
9:57 AM 33.8 °F 26.4 °F 24.8 °F 70% 30.13 in 10.0 mi WNW 9.2 mph - N/A   Scattered Clouds
9:58 AM 33.6 °F 26.8 °F 24.8 °F 70% 30.15 in 10.0 mi WNW 8.1 mph - N/A   Scattered Clouds
10:58 AM 37.2 °F 30.0 °F 24.6 °F 60% 30.14 in 10.0 mi WSW 10.4 mph - N/A   Clear
11:58 AM 40.3 °F 33.9 °F 24.8 °F 54% 30.10 in 10.0 mi WSW 10.4 mph - N/A   Clear
12:58 PM 43.9 °F 37.2 °F 25.2 °F 48% 30.08 in 10.0 mi WSW 13.8 mph 19.6 mph N/A   Clear
1:58 PM 45.1 °F 39.5 °F 24.1 °F 44% 30.05 in 10.0 mi SW 11.5 mph 21.9 mph N/A   Clear
2:58 PM 46.2 °F 40.5 °F 22.1 °F 39% 30.04 in 10.0 mi WSW 12.7 mph - N/A   Clear
3:58 PM 46.2 °F 40.1 °F 22.1 °F 39% 30.04 in 10.0 mi SW 13.8 mph - N/A   Clear
4:58 PM 43.9 °F 38.8 °F 21.9 °F 42% 30.02 in 10.0 mi SW 9.2 mph - N/A   Clear
5:58 PM 40.1 °F 35.3 °F 21.4 °F 47% 30.01 in 10.0 mi SSW 6.9 mph - N/A   Clear
6:58 PM 39.7 °F 33.2 °F 21.7 °F 49% 30.00 in 10.0 mi SSW 10.4 mph - N/A   Clear
7:58 PM 39.9 °F 32.5 °F 22.8 °F 50% 29.98 in 10.0 mi SSW 12.7 mph - N/A   Clear
8:58 PM 40.6 °F 32.3 °F 23.0 °F 49% 29.95 in 10.0 mi SSW 16.1 mph - N/A   Clear
9:58 PM 42.3 °F 33.3 °F 21.9 °F 44% 29.94 in 10.0 mi WSW 20.7 mph 29.9 mph N/A   Clear
10:58 PM 41.0 °F 32.8 °F 21.9 °F 47% 29.94 in 10.0 mi SW 16.1 mph - N/A   Clear
11:58 PM 40.1 °F 31.6 °F 23.0 °F 51% 29.94 in 10.0 mi SW 16.1 mph - N/A   Clear